Probability
6 13 19 32 29 35 39 48 45 39 42 42 42 39 35 29 32 35 35 35 29 32 32 35 35 32 26 23 19 19 23 29 16 16 26 19 19 16 16 19 19 10 16
6 10 23 39 35 35 45 42 42 42 39 39 35 32 29 32 35 32 32 26 29 29 26 29 26 26 23 23 19 19 23 19 13 13 13 16 19 23 16 19 29 10 6
10 10 23 42 35 45 42 39 42 35 32 32 35 32 32 35 32 35 29 26 29 26 19 26 19 19 23 23 19 16 13 13 10 0 0 10 13 19 19 19 19 16 13
6 10 19 42 42 42 42 39 39 35 32 32 35 35 32 35 32 32 32 26 26 26 23 19 19 19 19 19 16 13 10 0 0 0 0 0 3 13 16 13 16 19 13
6 10 23 42 39 35 42 42 39 32 35 35 32 32 32 35 35 35 29 26 23 23 16 19 19 19 16 16 13 13 3 0 0 0 3 3 6 10 10 13 16 16 13
6 6 19 39 35 35 35 32 32 35 32 29 23 26 23 26 26 29 26 23 23 23 16 16 16 19 13 13 13 6 0 0 0 3 3 3 0 10 3 13 13 10 10
10 10 23 32 39 35 35 29 32 26 29 26 19 19 26 26 26 23 19 23 23 19 16 13 16 10 13 13 6 3 0 0 0 0 0 3 0 3 3 10 6 6 6
10 13 26 32 35 32 35 29 29 16 23 26 23 16 19 26 23 23 23 23 23 16 13 13 6 10 6 6 6 3 0 0 0 0 0 0 3 3 3 3 6 6 6
16 23 23 23 23 23 26 23 23 19 19 23 19 19 23 23 23 23 26 23 19 13 13 10 10 10 10 6 6 0 0 0 0 0 0 0 0 0 0 3 6 6 6
16 23 23 23 23 16 16 16 13 16 19 16 13 13 10 10 16 19 23 19 16 13 13 6 6 10 6 6 3 0 0 0 0 0 0 0 0 0 0 3 3 3 6
13 16 16 19 19 16 13 10 10 6 6 3 6 10 6 10 10 10 6 10 10 10 10 6 6 3 3 3 3 0 0 0 0 3 3 0 3 0 0 3 3 3 3
13 16 16 16 16 10 10 10 13 6 6 6 6 10 10 13 10 3 0 3 3 3 6 6 6 3 3 3 0 0 0 0 0 3 0 0 0 0 0 0 3 3 3
6 16 16 13 13 10 10 13 16 16 6 3 3 3 13 13 13 13 13 3 3 3 3 3 3 3 0 3 0 0 0 0 3 0 0 0 0 0 0 0 3 3 3
6 13 16 16 13 13 10 10 10 10 10 6 3 3 3 10 13 10 13 6 3 3 3 3 3 0 0 0 0 0 0 0 0 0 0 0 3 3 0 0 3 3 3
3 3 10 10 10 10 10 6 6 6 3 3 6 6 0 0 6 10 6 6 3 3 3 3 0 0 0 0 0 0 0 0 0 0 0 0 3 3 6 3 3 3 3
3 3 6 3 3 6 6 6 6 3 3 3 3 6 6 0 3 6 0 3 3 3 3 0 0 0 0 0 0 0 0 0 0 0 0 0 0 0 3 3 3 3 3
3 3 0 3 3 3 6 6 3 3 3 3 3 3 0 0 3 3 0 0 0 0 0 0 0 0 0 0 0 0 0 0 0 0 0 0 0 0 3 3 3 3 3
3 3 0 0 3 3 6 6 6 3 3 3 3 3 0 0 0 3 0 0 0 0 0 0 0 0 0 0 0 0 0 0 0 0 0 0 0 0 0 3 3 3 3
3 0 0 0 0 3 3 6 3 3 3 3 3 0 0 0 0 3 0 0 0 0 0 0 0 0 0 0 0 0 0 0 0 0 0 0 0 0 0 0 0 0 3
3 0 0 0 0 0 3 3 3 3 3 3 3 0 0 0 0 0 0 0 0 0 0 0 0 0 0 0 0 0 0 0 0 0 0 0 0 0 0 0 0 0 0
0 0 0 0 0 0 0 0 3 3 3 3 3 0 0 0 0 0 0 0 0 0 0 0 0 0 0 0 0 0 0 0 0 0 0 0 0 0 0 0 0 0 0
0 0 0 0 0 0 0 0 0 3 3 3 0 0 0 0 0 0 0 0 0 0 0 0 0 0 0 0 0 0 0 0 0 0 0 0 0 0 0 0 0 0 0
0 0 0 0 0 0 0 0 0 0 3 0 0 0 0 0 0 0 0 0 0 0 0 0 0 0 0 0 0 0 0 0 0 0 0 0 0 0 0 0 0 0 0
0 0 0 0 0 0 0 0 0 0 0 0 0 0 0 0 0 0 0 0 0 0 0 0 0 0 0 0 0 0 0 0 0 0 0 0 0 0 0 0 0 0 0
0 0 0 0 0 0 0 0 0 0 0 0 0 0 0 0 0 0 0 0 0 0 0 0 0 0 0 0 0 0 0 0 0 0 0 0 0 0 0 0 0 0 0
0 0 0 0 0 0 0 0 0 0 0 0 0 0 0 0 0 0 0 0 0 0 0 0 0 0 0 0 0 0 0 0 0 0 0 0 0 0 0 0 0 0 0
Height
5835 5836 5837 5838 5838 5839 5840 5841 5842 5843 5844 5845 5846 5846 5847 5848 5848 5849 5849 5849 5850 5850 5851 5851 5851 5852 5853 5853 5854 5854 5855 5855 5855 5856 5856 5856 5856 5857 5857 5857 5857 5857 5857
5832 5833 5834 5835 5836 5837 5838 5839 5840 5841 5842 5843 5843 5844 5845 5846 5847 5847 5848 5848 5849 5849 5849 5850 5850 5851 5851 5852 5853 5853 5854 5854 5855 5855 5855 5856 5856 5856 5856 5856 5856 5856 5856
5829 5830 5831 5833 5834 5835 5836 5836 5837 5838 5839 5840 5841 5842 5843 5844 5845 5846 5846 5847 5847 5848 5848 5848 5849 5850 5850 5851 5851 5852 5852 5853 5853 5854 5854 5855 5855 5855 5855 5855 5855 5855 5855
5826 5827 5828 5830 5831 5832 5833 5834 5835 5836 5837 5838 5839 5840 5841 5842 5843 5844 5844 5845 5845 5846 5846 5847 5847 5848 5849 5849 5850 5850 5851 5851 5852 5853 5853 5853 5853 5853 5854 5854 5854 5854 5854
5822 5823 5824 5826 5827 5829 5830 5831 5832 5833 5834 5835 5836 5837 5838 5839 5840 5841 5842 5842 5843 5844 5844 5845 5845 5846 5846 5847 5848 5848 5849 5850 5850 5851 5851 5851 5852 5852 5852 5852 5852 5853 5853
5818 5819 5820 5822 5823 5825 5826 5828 5829 5830 5831 5832 5833 5834 5835 5836 5837 5838 5839 5839 5840 5841 5842 5842 5843 5844 5844 5845 5846 5846 5847 5847 5848 5849 5849 5849 5850 5850 5850 5850 5851 5851 5851
5813 5815 5816 5817 5819 5821 5822 5824 5825 5826 5827 5829 5830 5831 5832 5832 5833 5834 5835 5836 5837 5838 5839 5839 5840 5841 5842 5842 5843 5844 5844 5845 5846 5846 5847 5847 5848 5848 5848 5848 5849 5849 5849
5808 5810 5811 5813 5814 5816 5818 5819 5821 5822 5823 5825 5826 5827 5828 5829 5830 5831 5832 5833 5834 5834 5835 5836 5837 5838 5839 5839 5840 5840 5841 5842 5843 5843 5844 5845 5845 5845 5846 5846 5846 5847 5847
5803 5804 5806 5808 5809 5811 5813 5814 5816 5817 5819 5820 5822 5823 5824 5825 5826 5827 5828 5829 5829 5830 5831 5832 5833 5834 5835 5835 5836 5837 5838 5838 5839 5840 5841 5841 5842 5843 5843 5843 5844 5844 5844
5797 5799 5801 5802 5804 5805 5807 5809 5811 5813 5814 5815 5817 5818 5819 5820 5821 5822 5823 5824 5825 5826 5827 5827 5828 5829 5830 5831 5832 5833 5834 5834 5835 5836 5837 5838 5838 5839 5840 5840 5841 5841 5841
5791 5793 5795 5797 5799 5800 5802 5803 5805 5807 5809 5810 5812 5813 5814 5815 5815 5817 5818 5819 5820 5821 5822 5823 5823 5824 5825 5826 5827 5828 5829 5830 5831 5832 5833 5834 5835 5835 5836 5837 5837 5838 5838
5785 5787 5789 5791 5793 5795 5796 5798 5799 5801 5803 5804 5806 5807 5808 5809 5810 5811 5812 5813 5815 5816 5816 5817 5818 5819 5820 5821 5822 5823 5824 5825 5826 5827 5828 5829 5830 5831 5832 5833 5833 5834 5834
5779 5781 5783 5785 5787 5788 5790 5791 5793 5795 5797 5798 5799 5801 5802 5803 5804 5805 5807 5808 5809 5810 5811 5812 5813 5814 5815 5816 5816 5817 5819 5820 5821 5822 5823 5824 5825 5826 5827 5828 5829 5830 5830
5772 5774 5777 5778 5780 5782 5783 5785 5786 5788 5790 5791 5793 5794 5795 5796 5798 5799 5800 5802 5803 5804 5805 5806 5807 5808 5809 5810 5811 5812 5813 5814 5816 5817 5818 5819 5820 5821 5822 5823 5824 5825 5825
5765 5767 5769 5771 5773 5774 5776 5778 5779 5780 5782 5784 5785 5787 5788 5790 5791 5792 5793 5795 5796 5798 5799 5800 5801 5802 5803 5804 5805 5806 5807 5808 5810 5811 5812 5814 5815 5816 5817 5818 5819 5820 5820
5757 5759 5761 5763 5765 5767 5768 5770 5771 5773 5774 5776 5778 5779 5781 5782 5784 5785 5787 5788 5790 5791 5792 5793 5795 5796 5797 5798 5799 5800 5801 5802 5803 5805 5806 5807 5809 5810 5811 5812 5813 5814 5814
5748 5751 5753 5755 5757 5758 5760 5762 5763 5765 5766 5768 5770 5772 5773 5775 5776 5778 5780 5781 5782 5784 5785 5786 5787 5789 5790 5791 5792 5793 5795 5796 5797 5798 5800 5801 5802 5803 5804 5805 5806 5807 5808
5740 5742 5744 5746 5748 5750 5751 5753 5755 5756 5758 5759 5761 5763 5765 5767 5768 5770 5772 5773 5775 5776 5778 5779 5780 5781 5783 5784 5785 5786 5787 5788 5790 5791 5793 5794 5795 5796 5797 5798 5799 5800 5801
5730 5733 5735 5737 5738 5740 5742 5744 5745 5747 5748 5750 5752 5754 5756 5758 5760 5762 5764 5765 5767 5768 5769 5771 5772 5774 5775 5776 5778 5779 5780 5781 5782 5784 5785 5786 5787 5788 5790 5791 5792 5793 5794
5721 5723 5725 5727 5729 5731 5732 5734 5736 5737 5739 5740 5742 5744 5747 5749 5751 5753 5755 5757 5758 5760 5761 5763 5764 5765 5767 5768 5769 5771 5772 5773 5774 5776 5777 5778 5779 5780 5781 5783 5784 5785 5786
5711 5713 5716 5718 5720 5721 5723 5724 5726 5728 5729 5731 5733 5735 5737 5740 5742 5744 5746 5748 5750 5751 5753 5754 5756 5757 5758 5759 5761 5762 5763 5764 5766 5767 5768 5769 5770 5772 5773 5774 5775 5776 5777
5702 5704 5706 5708 5710 5711 5713 5714 5716 5718 5720 5722 5723 5725 5727 5729 5732 5734 5737 5739 5740 5742 5744 5745 5747 5748 5749 5750 5752 5753 5754 5756 5757 5758 5759 5760 5761 5762 5764 5765 5766 5767 5768
5693 5695 5697 5698 5700 5702 5703 5705 5706 5708 5709 5711 5713 5715 5717 5719 5721 5724 5726 5729 5731 5732 5734 5735 5737 5738 5740 5741 5742 5743 5745 5746 5747 5749 5749 5750 5751 5752 5754 5755 5756 5757 5758
5684 5685 5687 5688 5690 5692 5693 5695 5697 5698 5700 5701 5703 5705 5706 5708 5710 5713 5716 5718 5720 5722 5724 5725 5727 5728 5730 5731 5732 5733 5735 5736 5737 5738 5740 5740 5741 5742 5743 5745 5746 5747 5748
5674 5675 5677 5679 5680 5682 5683 5685 5686 5688 5690 5691 5693 5694 5696 5698 5700 5702 5704 5707 5709 5711 5713 5714 5716 5717 5719 5720 5721 5722 5723 5724 5725 5727 5728 5730 5730 5731 5732 5733 5735 5736 5737
5663 5665 5667 5669 5670 5672 5673 5675 5676 5678 5679 5681 5682 5684 5685 5687 5689 5691 5692 5695 5698 5700 5702 5703 5705 5706 5708 5709 5710 5711 5712 5713 5714 5715 5716 5718 5719 5720 5721 5722 5723 5724 5725
Wind_Speed
14 14 13 14 14 14 13 13 13 13 12 13 12 12 11 11 10 9 9 8 7 7 7 7 6 6 6 6 6 5 5 4 4 4 4 3 3 3 2 3 3 3 3
15 15 15 15 14 14 14 14 13 13 13 13 13 13 12 12 11 10 10 9 8 8 8 7 7 7 7 6 6 6 6 6 5 5 5 5 4 4 4 4 4 4 3
17 17 17 17 16 15 15 15 15 14 14 14 14 13 13 12 12 11 11 10 9 9 8 8 8 8 8 7 7 7 7 7 6 6 6 6 6 6 6 5 5 5 4
18 18 18 18 18 17 17 16 16 16 16 15 15 14 14 13 13 12 12 11 11 10 9 9 9 9 9 8 8 8 8 7 7 7 7 7 7 7 7 6 6 6 6
19 19 20 20 20 19 18 18 18 17 17 17 16 16 15 15 14 14 13 13 12 12 12 11 10 10 10 9 9 9 9 9 8 8 8 8 8 7 7 7 7 7 7
20 20 20 21 21 21 20 20 19 18 18 18 17 17 16 17 16 15 15 14 13 13 13 12 12 12 12 12 11 11 10 10 10 10 9 9 9 8 8 8 8 8 8
22 22 22 22 22 22 22 21 21 20 20 19 19 18 18 18 18 17 16 15 15 15 14 14 14 14 14 14 13 13 12 13 12 11 11 10 10 9 9 9 9 9 9
23 22 23 23 24 24 23 23 23 22 22 21 20 20 20 19 19 18 18 18 17 16 16 16 16 16 16 16 16 15 14 14 14 13 12 12 11 11 11 10 10 10 11
24 24 24 24 25 25 25 25 24 23 24 23 22 22 21 21 20 21 20 20 19 19 19 18 18 18 17 17 17 17 16 16 16 15 15 14 13 13 12 12 12 12 12
26 26 25 25 25 26 26 26 26 25 25 24 24 23 24 23 23 22 22 22 22 21 21 21 20 20 19 19 19 19 19 18 18 17 17 16 16 15 15 14 14 14 14
28 27 27 25 25 26 26 27 27 26 26 26 25 25 25 25 24 24 24 23 23 23 23 23 22 22 22 21 21 20 20 20 19 19 18 18 18 18 18 17 16 16 16
28 28 27 27 26 26 27 27 27 27 27 27 27 27 26 26 25 25 25 24 24 24 24 24 23 23 23 23 23 22 22 22 21 21 20 20 20 20 19 19 18 18 18
29 29 28 28 28 28 28 28 28 29 29 29 28 28 28 28 27 27 27 26 25 25 25 25 24 24 24 23 23 24 24 23 23 23 22 22 22 22 21 21 20 20 20
30 30 29 29 29 29 30 30 30 31 31 31 30 30 30 29 29 29 29 28 27 27 26 26 26 25 25 25 24 25 25 25 25 25 24 24 23 23 23 23 22 22 21
32 32 31 31 31 31 31 32 32 33 33 32 32 32 32 31 31 30 30 29 29 28 28 27 27 27 26 26 26 26 26 26 26 26 26 25 25 25 25 25 24 24 24
33 33 33 33 33 32 32 33 33 33 33 33 33 34 34 33 32 31 31 30 29 29 29 29 29 28 28 27 27 27 27 27 27 27 27 27 27 26 26 26 26 26 26
34 34 34 34 35 34 32 33 33 33 34 34 34 34 34 34 33 32 32 31 31 31 30 30 30 30 30 29 29 29 29 29 29 28 28 28 28 28 28 28 28 28 28
35 35 35 36 36 36 35 35 34 33 34 35 35 35 35 35 34 33 32 32 32 32 32 32 31 31 31 31 31 31 31 31 31 30 30 30 30 30 30 29 29 29 29
37 37 37 37 36 36 37 36 35 34 35 36 36 36 36 35 35 35 34 34 34 33 33 33 33 33 33 32 32 32 32 32 32 32 32 32 32 32 32 31 31 31 31
37 37 37 38 38 38 38 38 37 36 36 36 38 38 37 37 37 37 36 36 36 35 35 35 35 35 35 34 34 34 34 34 34 34 34 34 34 34 34 33 34 33 33
36 36 37 37 38 38 38 38 38 38 38 37 38 40 39 39 39 38 38 37 37 37 36 36 36 37 36 36 36 36 37 37 36 36 36 37 37 36 36 36 36 36 35
36 36 37 37 38 39 39 39 39 39 39 40 39 40 40 40 40 40 39 39 39 38 38 37 37 38 38 38 38 38 38 38 39 39 39 38 38 38 38 38 38 38 38
37 37 37 38 38 39 40 40 40 40 39 40 40 40 41 41 41 41 40 41 40 40 40 40 39 39 39 39 40 40 40 40 40 40 41 40 40 40 40 40 40 40 40
37 38 38 38 38 38 39 39 40 40 40 41 41 41 42 42 43 42 42 43 42 42 41 41 41 41 41 41 41 41 42 42 42 41 42 42 43 43 42 42 42 42 42
38 39 39 39 39 38 39 40 40 41 42 42 42 42 42 43 43 43 43 44 44 44 44 44 44 43 43 43 43 44 44 44 44 43 43 44 44 44 44 44 45 44 44
40 40 40 40 40 40 40 40 41 42 42 42 42 43 43 43 44 44 43 44 46 46 46 46 46 45 45 45 45 45 46 45 45 45 45 45 45 46 46 46 46 46 46
Wind_Direction
239 237 237 235 235 234 234 233 233 230 227 226 226 227 227 226 223 220 219 220 218 215 212 205 203 203 202 196 197 204 208 212 213 215 221 226 229 234 240 236 237 240 245
242 240 238 236 236 234 233 232 231 230 227 225 226 227 227 225 223 221 221 222 222 219 216 214 211 208 211 210 210 214 218 221 222 226 230 234 237 241 246 245 248 248 249
244 244 241 238 237 236 235 233 232 231 229 228 228 228 228 228 226 224 223 225 226 224 224 224 219 217 218 219 221 222 224 227 230 232 235 239 243 245 249 253 251 251 252
244 243 242 239 239 237 236 235 233 231 230 231 231 231 231 230 230 230 229 230 230 231 233 234 228 227 224 224 227 228 229 229 232 235 239 241 244 249 253 254 252 250 253
244 243 243 240 239 239 237 237 235 234 233 233 233 233 232 232 234 236 235 235 234 235 238 236 233 233 234 234 234 236 237 235 237 239 241 245 247 249 253 254 253 253 254
243 244 243 241 239 238 238 238 238 239 236 235 236 235 235 236 237 237 238 238 238 237 237 238 239 240 241 241 242 244 244 242 242 243 244 246 249 250 249 250 253 255 257
243 243 243 241 240 239 240 240 239 238 238 238 238 238 238 239 239 238 239 241 242 242 242 242 243 245 247 246 246 248 250 247 247 245 245 247 247 248 250 252 253 255 258
243 243 242 242 240 239 239 239 240 238 239 239 240 241 241 242 242 243 242 242 245 247 247 247 248 249 250 250 249 249 250 248 248 247 247 249 249 249 250 253 255 256 258
241 242 242 243 242 242 241 240 241 241 240 240 241 242 244 244 244 244 243 243 245 247 249 250 250 250 252 251 250 250 249 248 248 248 249 249 250 249 251 254 256 257 257
241 242 242 243 244 243 242 241 241 242 241 241 242 245 246 246 245 245 245 246 246 248 248 249 251 252 252 251 251 251 250 249 250 250 249 249 249 250 252 254 256 257 257
241 241 241 241 243 242 243 244 244 244 243 243 244 245 245 245 245 246 247 249 249 249 250 251 253 254 252 251 251 251 250 250 251 251 250 250 250 251 253 254 256 257 258
241 241 241 241 242 242 243 244 245 245 243 244 244 244 245 245 245 246 248 249 249 249 250 252 253 253 252 251 252 251 251 250 251 252 252 252 252 253 253 255 256 257 258
241 241 242 243 243 244 244 245 246 246 245 243 243 243 244 245 246 247 248 249 249 250 251 252 253 253 253 252 253 252 251 252 252 253 253 253 253 254 254 255 256 257 258
240 241 243 244 244 245 245 246 247 247 246 244 242 243 245 246 247 248 249 249 250 250 250 251 252 253 254 254 253 251 252 253 253 254 253 253 253 254 255 256 256 257 259
241 242 243 244 244 244 246 247 247 247 244 243 243 245 246 247 248 249 250 250 250 250 250 251 252 253 254 254 254 253 254 253 254 254 254 253 253 254 255 256 256 257 259
242 242 243 244 244 244 246 246 246 245 243 244 245 246 247 248 248 249 249 249 249 249 251 252 252 252 253 254 254 254 255 255 254 255 255 254 254 254 256 256 257 258 260
244 244 244 245 244 244 245 245 246 246 245 245 247 247 248 248 248 249 249 250 250 250 251 252 252 253 253 253 253 253 254 254 255 255 256 256 256 256 256 257 258 259 260
244 244 244 245 244 245 245 246 247 247 247 246 246 247 247 248 249 249 249 251 251 251 252 253 254 254 254 254 254 254 254 255 255 255 256 256 257 257 257 257 258 259 260
244 244 244 245 245 245 244 245 248 249 249 248 246 246 246 248 249 249 250 251 252 252 253 254 255 255 255 255 254 254 254 255 255 256 256 256 257 258 258 258 258 260 260
246 245 245 246 245 246 246 247 248 249 249 248 246 246 246 247 249 250 250 251 253 254 255 255 255 255 256 255 254 254 255 256 256 257 257 257 258 258 257 258 259 260 260
246 246 246 246 246 245 246 247 247 248 249 249 248 248 247 247 249 250 251 251 253 254 255 255 256 256 257 256 255 255 255 256 257 258 259 258 258 258 258 258 259 260 261
246 246 245 245 246 246 246 247 248 249 249 249 249 249 248 248 249 250 250 251 252 253 255 256 256 258 258 258 257 256 257 258 258 259 259 259 259 259 258 259 259 260 262
245 245 246 246 247 248 247 247 248 248 249 249 249 249 249 250 251 250 249 250 252 254 254 256 257 258 258 258 259 258 259 260 259 259 259 259 259 259 259 259 260 261 262
245 246 246 246 247 248 249 249 249 249 249 250 249 250 251 252 252 252 252 253 253 254 255 256 257 258 259 259 259 260 260 261 261 260 258 259 259 259 259 260 260 261 262
246 247 247 247 248 249 250 250 250 250 250 250 251 253 253 253 253 253 253 253 254 255 256 256 258 259 259 260 260 261 261 261 260 261 260 260 260 260 261 261 260 261 262
248 249 248 248 249 250 251 251 251 250 251 251 252 253 254 255 254 252 253 253 255 256 256 257 258 259 260 261 261 261 261 261 261 261 261 261 261 261 261 262 261 262 263